User: anonymous   Login
Location: Arbon
(43.0005°N, 0.7472°E)
Time: 15:30:59
(UTC+00:00)
Language:

CZ-2D R/B - Orbit

View from above orbital plane
View from above orbital plane
View from above satellite
View from above satellite

Ground track
Ground track

The orbit data is extracted from the following two-line orbital elements,

1 36597U 10027B   20295.90158872  .00000362  00000-0  41724-4 0  9991
2 36597  97.8845 253.5960 0060266 284.4418  75.0117 14.90732653562468
Epoch (UTC): 21 October 2020 21:38:17
Eccentricity: 0.0060266
inclination: 97.8845°
perigee height: 553 km
apogee height: 637 km
right ascension of ascending node: 253.5960°
argument of perigee: 284.4418°
revolutions per day: 14.90732653
mean anomaly at epoch: 75.0117°
orbit number at epoch: 56246

The dashed part of the orbit path shows where the satellite is in the earth's shadow,  

DLR